User: anonymous   Login
Location: UBC Liquid-Mirror Observatory
(49.2876°N, 122.5728°W)
Time: 04:25:42
(UTC-07:00)
Language:

Cosmos 1743 Rocket - Orbit

View from above orbital plane
View from above orbital plane
View from above satellite
View from above satellite

Ground track
Ground track

The orbit data is extracted from the following two-line orbital elements,

1 16720U 86034B   15144.82543125  .00000235  00000-0  25750-4 0  9995
2 16720 082.5558 224.6912 0021795 071.5419 067.5489 14.83079475567441
Epoch (UTC): 24 May 2015 19:48:37
Eccentricity: 0.0021795
inclination: 82.5558°
perigee height: 604 km
apogee height: 635 km
right ascension of ascending node: 224.6912°
argument of perigee: 71.5419°
revolutions per day: 14.83079475
mean anomaly at epoch: 67.5489°
orbit number at epoch: 56744

The dashed part of the orbit path shows where the satellite is in the earth's shadow,  

DLR